map of SGN home
SGN - Airport
Location
City:  Ho Chi Minh City, Vietnam
Near (Alt.):Saigon
Name:Tan Son Nhat International Airport
ICAO:VVTS
IATA:SGN

Details
Type:Airport (Aerodrome, Airfield)
Use:Public/Civil, International (customs port of entry)
Latitude:1049'08"N (10.818797)
Longitude:10639'07"E (106.651856)
Datum:WGS 1984
Elevation:33 ft (10 m)
Variation:0.46W (WMM2015 magnetic declination)
-0.03 annual change
Runways:2
Longest:12468 × 148 ft (3800 × 45 m), paved

Time
Time Zone:UTC+7
Local Time:

Weather
METAR:VVTS 161200Z 12010KT 040V150 9999 FEW017 SCT040 28/22 Q1009 NOSIG
TAF:VVTS 161100Z 1612/1718 12008KT 9999 SCT017
TEMPO 1706/1711 TS SCT015 SCT017CB

Related Locations
Nearby:
Farthest:SPSE: 12429 mi / 20002 km
Sepahua [Sepahua Airport], UCA, PE

Find:

   beyond  
but within

Other Information
Maps:
NOTAMs:
Links:
Sources:

  
flag of Vietnam   

Airport Diagram

Airport diagram for SGN

Airport diagram (OBSOLETE) from NGA

Sectional Chart

Flight Planning
at skyvector.com

Satellite Image

Google Maps Satellite view

 

Copyright © 2004-2017 Karl L. Swartz. All rights reserved.
The Great Circle Mapper name and logo are trademarks of the Great Circle Mapper.
All other trademarks mentioned herein belong to their respective owners.
Please see credits for attibutions and further copyright information.

  Follow gcmap on Facebook Follow gcmap on Twitter Follow gcmap on Google+ GCmap on LinkedIn

hCard Microformat

Geo Microformat